| time (UTC) | temp C | wind direction | speed KPH | gust KPH | rain 1hr cm | rain 24hr cm | rain mn cm | humidity % | barometer mb |
| 20260505093020 | 12 | 19 | 3.2 | 8.0 | 0.03 | 9.53 | 0.13 | 92 | 1010.6 |
| 20260505091554 | 12 | 19 | 4.8 | 9.7 | 0.00 | 9.50 | 0.10 | 92 | 1010.4 |
| 20260505090055 | 12 | 360 | 4.8 | 8.0 | 0.00 | 9.50 | 0.10 | 92 | 1010.3 |
| 20260505084522 | 12 | 360 | 0.0 | 4.8 | 0.00 | 9.50 | 0.10 | 92 | 1010.2 |
| 20260505083109 | 12 | 360 | 3.2 | 8.0 | 0.00 | 9.50 | 0.10 | 92 | 1010.2 |
| 20260505081623 | 12 | 360 | 4.8 | 8.0 | 0.00 | 9.50 | 0.10 | 92 | 1010.2 |
| 20260505080113 | 12 | 360 | 3.2 | 8.0 | 0.00 | 9.50 | 0.10 | 93 | 1010.1 |
| 20260505074503 | 12 | 18 | 1.6 | 3.2 | 0.00 | 9.50 | 0.10 | 93 | 1010.1 |
| 20260505073018 | 12 | 17 | 0.0 | 3.2 | 0.00 | 9.50 | 0.10 | 94 | 1010.2 |
| 20260505071524 | 12 | 19 | 1.6 | 4.8 | 0.00 | 9.50 | 0.10 | 95 | 1010.2 |
| 20260505070128 | 12 | 19 | 1.6 | 4.8 | 0.00 | 9.50 | 0.10 | 95 | 1010.2 |
| 20260505064620 | 12 | 19 | 3.2 | 4.8 | 0.00 | 9.50 | 0.10 | 95 | 1010.1 |
| 20260505063126 | 12 | 19 | 0.0 | 4.8 | 0.00 | 9.50 | 0.10 | 95 | 1010.2 |
| 20260505061634 | 12 | 17 | 1.6 | 3.2 | 0.00 | 9.50 | 0.10 | 95 | 1010.0 |
| 20260505060123 | 12 | 17 | 1.6 | 3.2 | 0.00 | 9.50 | 0.10 | 95 | 1009.9 |
| 20260505054632 | 12 | 18 | 1.6 | 4.8 | 0.00 | 9.50 | 0.10 | 95 | 1009.9 |
| 20260505053019 | 12 | 17 | 0.0 | 6.4 | 0.03 | 9.50 | 0.10 | 96 | 1009.8 |
| 20260505051535 | 12 | 17 | 1.6 | 4.8 | 0.03 | 9.50 | 0.10 | 95 | 1009.8 |
| 20260505050104 | 12 | 17 | 1.6 | 6.4 | 0.03 | 9.50 | 0.10 | 95 | 1009.9 |
| 20260505041639 | 12 | 18 | 1.6 | 9.7 | 0.05 | 9.47 | 0.08 | 95 | 1010.4 |
| 20260505040127 | 12 | 19 | 4.8 | 11.3 | 0.05 | 9.47 | 0.08 | 95 | 1010.8 |
| 20260505034628 | 12 | 360 | 1.6 | 11.3 | 0.03 | 9.45 | 0.05 | 95 | 1010.9 |
| 20260505033002 | 11 | 17 | 3.2 | 8.0 | 0.00 | 9.45 | 0.05 | 95 | 1010.9 |
| 20260505031508 | 12 | 18 | 1.6 | 6.4 | 0.00 | 9.45 | 0.05 | 95 | 1011.2 |
| 20260505030026 | 12 | 17 | 3.2 | 4.8 | 0.00 | 9.45 | 0.05 | 95 | 1011.3 |
| 20260505024601 | 12 | 17 | 1.6 | 8.0 | 0.00 | 9.45 | 0.05 | 95 | 1011.4 |
| 20260505023116 | 12 | 18 | 1.6 | 6.4 | 0.03 | 9.45 | 0.05 | 95 | 1011.5 |
| 20260505021503 | 12 | 17 | 3.2 | 4.8 | 0.03 | 9.45 | 0.05 | 95 | 1011.4 |
| 20260505020002 | 12 | 17 | 3.2 | 8.0 | 0.03 | 9.45 | 0.05 | 95 | 1011.6 |
| 20260505014506 | 11 | 18 | 3.2 | 6.4 | 0.03 | 9.45 | 0.05 | 95 | 1011.3 |
| 20260505013012 | 12 | 17 | 4.8 | 11.3 | 0.00 | 9.42 | 0.03 | 95 | 1011.3 |
| 20260505011512 | 12 | 17 | 4.8 | 8.0 | 0.00 | 9.42 | 0.03 | 95 | 1011.3 |
| 20260505010019 | 12 | 17 | 3.2 | 6.4 | 0.03 | 9.42 | 0.03 | 94 | 1011.5 |
| 20260505004519 | 12 | 17 | 1.6 | 6.4 | 0.03 | 9.42 | 0.03 | 94 | 1011.8 |
| 20260505003011 | 12 | 17 | 3.2 | 8.0 | 0.03 | 9.42 | 0.03 | 94 | 1012.2 |
| 20260505001635 | 12 | 17 | 3.2 | 6.4 | 0.03 | 9.42 | 0.03 | 94 | 1012.3 |
| 20260505000001 | 12 | 17 | 3.2 | 6.4 | 0.00 | 9.40 | 0.00 | 94 | 1012.4 |
| 20260504234626 | 12 | 17 | 3.2 | 4.8 | 0.00 | 9.40 | 0.00 | 94 | 1012.7 |
| 20260504233109 | 12 | 18 | 1.6 | 4.8 | 0.00 | 9.40 | 0.00 | 94 | 1012.7 |
| 20260504231623 | 12 | 17 | 4.8 | 8.0 | 0.00 | 9.40 | 0.00 | 93 | 1012.4 |
| 20260504230005 | 12 | 17 | 4.8 | 8.0 | 0.00 | 9.40 | 0.00 | 93 | 1012.5 |
| 20260504224514 | 12 | 17 | 3.2 | 4.8 | 0.00 | 9.40 | 0.00 | 93 | 1012.6 |
| 20260504223019 | 12 | 18 | 3.2 | 6.4 | 0.00 | 9.40 | 0.00 | 94 | 1012.6 |
| 20260504221524 | 12 | 17 | 1.6 | 4.8 | 0.00 | 9.40 | 0.00 | 94 | 1012.2 |
| 20260504220123 | 12 | 18 | 1.6 | 3.2 | 0.00 | 9.40 | 0.00 | 94 | 1012.2 |
| 20260504214611 | 12 | 360 | 1.6 | 6.4 | 0.00 | 9.40 | 9.40 | 94 | 1012.2 |
| 20260504213118 | 12 | 17 | 1.6 | 6.4 | 0.00 | 9.40 | 9.40 | 94 | 1012.3 |
| 20260504211629 | 12 | 17 | 3.2 | 8.0 | 0.00 | 9.40 | 9.40 | 94 | 1012.2 |
| 20260504210136 | 12 | 18 | 4.8 | 8.0 | 0.00 | 9.40 | 9.40 | 94 | 1012.6 |
| 20260504204634 | 12 | 17 | 3.2 | 6.4 | 0.00 | 9.40 | 9.40 | 94 | 1012.6 |
| 20260504203012 | 12 | 18 | 1.6 | 4.8 | 0.00 | 9.40 | 9.40 | 94 | 1012.7 |
| 20260504201512 | 12 | 17 | 1.6 | 3.2 | 0.00 | 9.40 | 9.40 | 94 | 1012.9 |
| 20260504200033 | 12 | 17 | 3.2 | 6.4 | 0.00 | 9.40 | 9.40 | 94 | 1013.1 |
| 20260504194522 | 12 | 17 | 3.2 | 6.4 | 0.00 | 9.40 | 9.40 | 94 | 1013.1 |
| 20260504193108 | 12 | 17 | 3.2 | 8.0 | 0.00 | 9.40 | 9.40 | 94 | 1013.0 |
| 20260504191601 | 12 | 18 | 3.2 | 6.4 | 0.00 | 9.40 | 9.40 | 93 | 1013.3 |
| 20260504190112 | 12 | 17 | 1.6 | 6.4 | 0.00 | 9.40 | 9.40 | 93 | 1013.5 |
| 20260504184617 | 12 | 17 | 1.6 | 8.0 | 0.03 | 9.40 | 9.40 | 93 | 1013.5 |
| 20260504183111 | 12 | 18 | 0.0 | 8.0 | 0.03 | 9.40 | 9.40 | 93 | 1013.6 |
| 20260504181611 | 12 | 17 | 3.2 | 8.0 | 0.03 | 9.40 | 9.40 | 93 | 1013.7 |
| 20260504180123 | 12 | 360 | 4.8 | 11.3 | 0.03 | 9.40 | 9.40 | 93 | 1013.9 |
| 20260504174624 | 12 | 18 | 3.2 | 6.4 | 0.00 | 9.37 | 9.37 | 92 | 1014.0 |
| 20260504173131 | 12 | 17 | 3.2 | 11.3 | 0.00 | 9.37 | 9.37 | 92 | 1014.0 |
| 20260504171633 | 12 | 18 | 1.6 | 9.7 | 0.03 | 9.37 | 9.37 | 92 | 1014.0 |
| 20260504160106 | 12 | 360 | 9.7 | 19.3 | 5.36 | 9.17 | 9.17 | 92 | 1014.5 |
| 20260504140129 | 12 | 18 | 4.8 | 11.3 | 0.15 | 2.79 | 2.79 | 93 | 1015.5 |
| 20260504130113 | 12 | 18 | 4.8 | 9.7 | 0.25 | 2.67 | 2.67 | 93 | 1015.7 |
| 20260504110108 | 12 | 360 | 8.0 | 14.5 | 0.03 | 0.23 | 0.03 | 90 | 1015.8 |